Location: Praha
(50.0755°N, 14.4378°E)
Time: 21:55:01
(UTC+01:00)

ISS - Pass Details

Date: 23 January 2020
Orbit: 415 x 423 km, 51.6° (Epoch: 25 February)

Event Time Altitude Azimuth Distance (km) Brightness Sun altitude
Rises 19:07:13 0° 242° (WSW) 2,373 1.1 -23.2°
Reaches altitude 10° 19:09:19 10° 240° (WSW) 1,509 -0.1 -23.6°
Enters shadow 19:11:27 35° 228° (SW) 701 -2.3 -23.9°
